Location: ??????????
(42.1626°N, 44.1160°E)
Time: 13:54:31
(UTC+00:00)

SL-4 R/B - Pass Details

Date: 03 March 2021
Orbit: 428 x 663 km, 51.6° (Epoch: 20 April)

Event Time Altitude Azimuth Distance (km) Brightness Sun altitude
Rises 16:37:46 0° 306° (NW) 2,465 6.5 -19.6°
Reaches altitude 10° 16:40:11 10° 320° (NW) 1,564 5.0 -20.1°
Enters shadow 16:42:53 25° 10° (N) 929 3.1 -20.5°
